Weather in Palm Springs

United States     33°48′50″N   116°30′58″W
temp.,
°C
wind,
m/s
gust,
m/s
humid.,
%
clouds,
%
prec.,
mm/h
press.,
hPa
HPBL,
m
23 may, mon
mon2323:00+20w44495 0.0 1012150
02:00+20w333296 0.0 101090
05:00+20w332934 0.0 101066
08:00+24n11244 0.0 1011327
11:00+27e32190 0.0 1010852
14:00+31e32151 0.0 10071989
17:00+32nnw32155 0.0 10062357
20:00+25w45325 0.0 1007277
24 may, tue
tue2423:00+23w443525 0.0 1007100
02:00+23w332938 0.0 100771
05:00+22w122822 0.0 100747
08:00+26ene11203 0.0 1008299
11:00+29e22136 0.0 10091071
14:00+32e321088 0.0 10071856
17:00+33e331067 0.0 10052358
20:00+29wnw32200 0.0 1006119
25 may, wed
wed2523:00+26w22290 0.0 100877
02:00+24wnw12280 0.0 1008143
05:00+23w11245 0.0 100836
08:00+27e11180 0.0 1010251
11:00+31e33140 0.0 1010945
14:00+35ese54100 0.0 10082212
17:00+35ene12113 0.0 10062515
20:00+28w44270 0.0 1008272
26 may, thu
thu2623:00+25w33330 0.0 1010240
02:00+23wnw22350 0.0 1009222
05:00+23w22330 0.0 1010173
08:00+26nne112464 0.0 1011407
11:00+30ene332013 0.0 10111272
14:00+33ne13171 0.0 10091951
17:00+33w55170 0.0 10081783
20:00+26w55321 0.0 1010313
27 may, fri
fri2723:00+23w553465 0.0 1011147
02:00+21w5538100 0.0 1011138
05:00+21w443024 0.0 101191
08:00+25wnw222015 0.0 1011303
11:00+30n221343 0.0 10111342
14:00+33w551224 0.0 10092000
17:00+31w551731 0.0 10081280
20:00+24w5631100 0.0 1009321